TimeCDT,TemperatureF,Dew PointF,Humidity,Sea Level PressureIn,VisibilityMPH,Wind Direction,Wind SpeedMPH,Gust SpeedMPH,PrecipitationIn,Events,Conditions,WindDirDegrees,DateUTC
12:53 AM,60.1,48.0,64,30.04,10.0,NNE,4.6,-,N/A,,Overcast,30,2014-04-05 05:53:00
1:53 AM,60.1,46.9,62,30.04,10.0,NNE,8.1,-,N/A,,Overcast,20,2014-04-05 06:53:00
2:53 AM,59.0,46.0,62,30.03,10.0,NNE,8.1,-,N/A,,Overcast,30,2014-04-05 07:53:00
3:53 AM,57.9,46.0,65,30.03,10.0,NNE,9.2,-,N/A,,Overcast,30,2014-04-05 08:53:00
4:53 AM,57.0,45.0,64,30.01,10.0,NNE,6.9,-,N/A,,Overcast,30,2014-04-05 09:53:00
5:53 AM,55.9,44.1,64,30.03,10.0,NNE,6.9,-,N/A,,Overcast,20,2014-04-05 10:53:00
6:53 AM,55.9,43.0,62,30.04,10.0,NNE,10.4,-,N/A,,Overcast,30,2014-04-05 11:53:00
7:53 AM,55.9,43.0,62,30.06,10.0,Variable,6.9,-,N/A,,Overcast,0,2014-04-05 12:53:00
8:53 AM,55.9,41.0,57,30.07,10.0,NE,11.5,18.4,N/A,,Overcast,50,2014-04-05 13:53:00
9:53 AM,57.9,39.9,51,30.09,10.0,Variable,6.9,-,N/A,,Overcast,0,2014-04-05 14:53:00
10:53 AM,62.1,37.9,41,30.10,10.0,NNE,11.5,-,N/A,,Clear,20,2014-04-05 15:53:00
11:53 AM,64.0,39.0,40,30.09,10.0,NNE,8.1,17.3,N/A,,Clear,20,2014-04-05 16:53:00
12:53 PM,66.9,39.9,37,30.07,10.0,Variable,4.6,-,N/A,,Clear,0,2014-04-05 17:53:00
1:53 PM,69.1,39.9,35,30.04,10.0,East,6.9,-,N/A,,Partly Cloudy,80,2014-04-05 18:53:00
2:53 PM,71.1,39.9,32,30.01,10.0,Variable,5.8,-,N/A,,Clear,0,2014-04-05 19:53:00
3:53 PM,70.0,39.0,32,30.00,10.0,Variable,5.8,-,N/A,,Clear,0,2014-04-05 20:53:00
4:53 PM,68.0,41.0,37,30.00,10.0,ENE,4.6,-,N/A,,Scattered Clouds,60,2014-04-05 21:53:00
5:53 PM,66.9,43.0,42,29.98,10.0,NE,6.9,-,N/A,,Clear,50,2014-04-05 22:53:00
6:53 PM,66.0,43.0,43,29.99,10.0,NE,4.6,-,N/A,,Mostly Cloudy,40,2014-04-05 23:53:00
7:53 PM,64.9,45.0,48,29.97,10.0,ENE,5.8,-,N/A,,Overcast,60,2014-04-06 00:53:00
8:53 PM,64.0,45.0,50,29.98,10.0,Calm,Calm,-,N/A,,Overcast,0,2014-04-06 01:53:00
9:35 PM,64.0,46.0,52,30.01,10.0,NNW,6.9,-,N/A,Thunderstorm,Overcast,330,2014-04-06 02:35:00
9:49 PM,62.6,48.2,59,29.99,10.0,Variable,3.5,-,0.01,Rain-Thunderstorm,Light Thunderstorms and Rain,0,2014-04-06 02:49:00
9:53 PM,60.1,48.9,67,29.99,9.0,SE,5.8,-,0.01,Rain-Thunderstorm,Light Thunderstorms and Rain,140,2014-04-06 02:53:00
10:04 PM,60.1,50.0,69,30.01,10.0,Calm,Calm,-,0.00,Rain,Light Rain,0,2014-04-06 03:04:00
10:53 PM,59.0,52.0,78,29.98,10.0,Calm,Calm,-,0.00,Rain,Light Rain,0,2014-04-06 03:53:00
11:13 PM,59.0,52.0,78,30.00,10.0,SSE,3.5,-,0.00,,Overcast,150,2014-04-06 04:13:00
11:53 PM,59.0,52.0,78,29.98,8.0,Calm,Calm,-,0.01,Rain,Light Rain,0,2014-04-06 04:53:00